Regional Weather Roundup
Issued by NWS Kansas City/Pleasant Hill, MO

Home | Current Version | Previous Version | Text Only | Print | Product List | Glossary On
Versions: 1 2 3 4 5 6 7 8 9 10 11 12 13 14 15 16 17 18 19 20 21 22 23 24 25 26 27 28 29 30 31 32 33 34 35 36 37 38 39 40 41 42 43 44 45 46 47 48 49 50
795
ASUS43 KEAX 272210
RWREAX

WEATHER ROUNDUP FOR EASTERN KANSAS AND NORTHWEST MISSOURI
NATIONAL WEATHER SERVICE KANSAS CITY/PLEASANT HILL MO
500 PM CDT SAT MAY 27 2017

KSZ040-057-103>105-MOZ028-029-037-043-272300-
...KANSAS CITY METROPOLITAN AREA...

CITY           SKY/WX    TMP DP  RH WIND       PRES   REMARKS
K.C. INTL      TSTM      69  64  84 NW5       29.84R
K.C. DOWNTOWN  CLOUDY    74  58  57 E6        29.82R
LEES SUMMIT    CLOUDY    69  62  78 N8        29.83R
OLATHE - IXD   TSTM      68  61  78 NW15      29.86R
OLATHE - OJC   TSTM      67  63  87 NW13      29.87R FOG
LAWRENCE       CLOUDY    74  66  76 N9        29.81F

$$

MOZ001>008-011>017-020>025-030>033-038>040-044>046-053-054-272300-
...NORTHERN AND CENTRAL MISSOURI...

CITY           SKY/WX    TMP DP  RH WIND       PRES   REMARKS
ST. JOSEPH     PTSUNNY   73  65  75 CALM      29.84R
MOSBY            N/A     73  59  60 W5        29.83R
WARRENSBURG    CLOUDY    66  61  82 CALM      29.81R
WHITEMAN AFB   CLOUDY    67  67  99 S5        29.80R
CLINTON        CLOUDY    64  61  88 SE6       29.80S
SEDALIA        CLOUDY    65  64  97 SE9       29.82R
WARSAW         NOT AVBL
CHILLICOTHE      N/A     75  63  66 VRB3      29.82R
KIRKSVILLE     CLOUDY    74  61  63 E6        29.81R

$$

MOZ041-047>049-056>058-063>065-088>090-097-272300-
...EASTERN AND SOUTHERN MISSOURI...

CITY           SKY/WX    TMP DP  RH WIND       PRES   REMARKS
ST. LOUIS INTL TSTM      74  67  78 W36G51    29.95R
SPIRIT OF STL  TSTM      67  64  90 W24G32    29.96R FOG
COLUMBIA       CLOUDY    63  62  97 SE16      29.80R
JEFFERSON CITY CLOUDY    67  60  78 E8        29.80F THUNDER
ROLLA          TSTM      62  32  32 NE10G18   29.83F
SPRINGFIELD    MOSUNNY   74  67  78 NE7       29.80R
BRANSON        PTSUNNY   86  72  62 S9        29.80S HX  92
JOPLIN         CLOUDY    79  72  79 NE12      29.74S
WEST PLAINS    CLOUDY    72  64  76 N12       29.85R

$$

IAZ060-094-KSZ022-034>040-054-083-096-NEZ052-066-093-272300-
...KANSAS...SOUTHEAST NEBRASKA AND IOWA...

CITY           SKY/WX    TMP DP  RH WIND       PRES   REMARKS
TOPEKA         CLOUDY    76  67  73 N10       29.82F
MANHATTAN      SUNNY     77  63  61 VRB5      29.83S
EMPORIA        CLOUDY    73  67  81 W5        29.83R
CHANUTE        MOSUNNY   79  64  60 E7        29.77F
WICHITA        PTSUNNY   82  63  52 N14       29.79R
OMAHA          PTSUNNY   71  56  58 E12       29.89R
LINCOLN        MOSUNNY   77  53  43 NE14      29.88R
FALLS CITY     CLOUDY    70  61  73 N8        29.85S
LAMONI         CLOUDY    72  61  68 N6        29.84R
DES MOINES     PTSUNNY   68  58  70 N13       29.85S

$$





USA.gov is the U.S. government's official web portal to all federal, state and local government web resources and services.